Tracking 19827 objects as of 21-Aug-2019
HD Live streaming from Space Station
objects crossing your sky now

FLOCK 1E 6


FLOCK 1E 6 is no longer on orbit
FLOCK 1E 6 is classified as:


NORAD ID: 40729
Int'l Code: 1998-067GM
Perigee: N/A
Apogee: N/A
Inclination: N/A
Period: N/A
Semi major axis: N/A
RCS: N/A
Launch date: November 20, 1998
Source: United States (US)
Launch site: TYURATAM MISSILE AND SPACE COMPLEX (TTMTR)
Decay date: 2016-07-21
aabbcc
Your satellite tracking list
Your tracking list is empty




NASA's NSSDC Master Catalog

Two Line Element Set (TLE):
1 40729U 98067GM  16202.94824483  .87005214  12670-4  39272-3 0  9998
2 40729  51.5890 194.7247 0013262 168.5360 192.8102 16.55509029 58579
Source of the keplerian elements: AFSPC